Location: Newark
(54.2500°N, 9.1833°E)
Time: 06:48:26
(UTC+00:00)

ISS - Visible Passes

Search period start: 17 November 2019 00:00
Search period end: 27 November 2019 00:00
Orbit: 412 x 421 km, 51.6° (Epoch: 17 November)

Date Brightness Start Highest point End Pass type
(mag) Time Alt. Az. Time Alt. Az. Time Alt. Az.
23 Nov -0.7 18:16:29 10° SSW 18:16:36 11° SSW 18:16:36 11° SSW visible
24 Nov -1.7 17:28:36 10° SSW 17:30:16 17° SSE 17:30:16 17° SSE visible
25 Nov -1.5 16:41:03 10° S 16:42:49 14° SE 16:43:52 12° ESE visible
25 Nov -1.2 18:15:45 10° SW 18:16:47 18° SW 18:16:47 18° SW visible
26 Nov -2.5 17:27:34 10° SW 17:30:19 30° SSE 17:30:19 30° SSE visible
